Presure
229 240 148 226 216 216 220 218 162 201 180 128 221 141 205 192 216 156 145 205 105 140 121 123 122 139 134 123 143 149 150 161 191 196 156 147 142 145 152 175 475 419 428 355 316 308 272
265 220 260 176 232 272 252 276 349 229 201 221 123 165 139 138 145 156 205 181 171 118 117 120 150 150 141 130 134 159 146 160 195 138 133 140 143 163 158 142 133 410 244 283 205 298 200
259 199 248 269 138 244 252 231 270 245 340 263 242 217 168 195 137 148 213 211 170 134 151 127 140 103 143 158 124 161 168 189 133 135 189 163 176 154 416 134 420 161 345 304 315 304 286
163 228 243 174 171 250 244 269 257 355 312 272 333 167 220 144 231 145 150 220 163 117 121 128 134 141 129 148 151 154 162 136 135 133 136 151 132 320 392 411 142 338 302 297 310 299 298
202 177 210 241 247 253 237 216 224 248 302 213 350 192 262 208 144 238 147 156 109 164 121 128 120 140 132 135 161 141 165 175 163 187 160 266 308 382 264 136 393 353 307 308 284 275 285
238 230 243 243 254 184 242 252 296 295 287 230 253 179 268 147 154 227 142 247 169 183 122 127 136 124 153 142 144 165 196 148 136 139 179 397 399 372 368 382 375 309 289 279 276 281 262
221 172 243 255 245 253 250 254 282 274 299 208 297 248 228 253 281 269 140 149 251 128 128 127 129 141 159 134 151 192 175 134 143 338 386 344 350 325 342 363 355 295 289 281 273 271 264
228 235 222 246 240 251 250 295 307 323 368 333 237 231 276 252 143 151 172 183 129 134 131 127 135 142 129 149 201 173 154 150 168 384 392 353 337 336 340 358 340 299 279 270 272 289 287
234 236 251 243 270 264 278 305 296 349 339 364 309 237 290 293 325 256 143 142 134 126 136 125 139 230 144 153 167 179 156 143 205 394 378 345 347 351 376 339 334 285 283 276 275 269 275
229 238 242 243 258 271 299 328 340 384 278 358 332 199 322 313 133 126 251 138 116 125 134 139 131 141 148 175 161 148 174 133 413 386 370 341 350 366 335 330 338 285 282 277 271 275 291
240 232 235 259 261 295 327 414 399 387 373 363 252 285 319 326 162 247 136 145 125 145 134 143 142 123 250 164 141 159 166 161 347 357 353 349 330 310 310 319 291 291 283 281 270 289 256
231 241 251 266 303 333 418 415 397 398 385 384 359 328 237 326 234 210 159 139 122 139 232 121 198 140 218 160 166 161 158 197 323 325 332 315 337 288 290 302 295 278 291 276 279 276 279
240 252 276 282 308 403 409 393 390 403 403 330 388 214 306 315 252 181 122 140 114 134 141 142 155 151 158 162 125 141 159 158 316 332 323 340 328 309 297 296 289 279 269 258 270 252 273
242 244 277 279 362 408 404 449 454 480 513 276 397 326 352 255 261 140 128 144 136 134 136 201 146 150 137 177 141 126 156 156 245 333 308 320 275 308 318 304 294 280 268 259 272 279 263
257 284 289 326 353 426 448 467 517 567 566 522 419 350 261 145 228 157 255 135 154 145 133 154 151 224 167 167 132 135 161 163 320 336 330 311 306 316 304 295 301 286 298 273 266 249 251
274 308 285 392 425 453 465 505 540 463 452 476 438 290 268 255 133 250 250 245 133 147 151 149 137 163 183 172 130 161 144 159 286 236 306 316 322 304 317 317 290 259 280 256 265 260 256
268 306 364 403 458 466 493 522 449 438 343 440 375 267 261 246 182 255 199 133 134 139 145 152 165 194 154 171 182 131 142 152 258 210 150 303 298 307 319 317 299 300 285 287 272 273 277
297 306 356 454 470 488 505 430 440 435 439 260 312 264 257 227 263 255 160 141 200 147 220 144 168 153 165 172 121 155 172 129 152 268 170 329 242 289 311 303 287 286 274 264 278 261 266
321 346 422 468 493 491 471 390 439 334 337 369 260 291 276 161 183 244 136 134 142 152 139 159 160 172 177 189 132 119 154 129 128 134 182 179 307 175 295 295 293 275 299 300 284 284 284
332 430 466 504 498 479 468 430 444 450 384 267 277 200 243 223 257 241 140 206 169 142 141 156 134 161 165 160 175 131 124 147 143 133 175 256 281 130 218 250 243 290 291 295 284 265 285
399 438 476 521 502 503 277 436 385 372 283 254 264 256 245 253 220 140 160 151 145 148 145 227 143 156 177 195 194 126 120 147 150 157 140 239 134 332 113 136 279 138 140 290 140 296 290
424 469 490 516 537 348 456 253 405 270 254 266 234 266 198 241 125 130 237 153 224 140 163 223 140 197 179 175 166 180 154 124 141 109 239 122 112 130 147 345 118 106 138 306 121 289 296
440 494 526 541 313 400 433 329 270 257 245 270 247 238 254 177 129 132 146 147 154 156 153 147 153 209 171 133 180 159 174 177 155 143 130 101 134 113 108 136 125 344 356 122 191 289 342
475 509 427 457 495 364 284 266 277 237 224 266 254 260 232 187 177 135 221 189 143 146 188 221 178 201 158 221 173 201 157 165 151 119 146 104 124 124 156 119 117 141 167 215 184 137 165
493 559 290 517 230 270 266 274 248 223 238 261 228 250 167 218 136 136 207 149 141 141 131 176 159 153 219 159 206 205 189 188 152 150 171 111 209 101 122 168 123 120 168 216 162 141 239
525 596 414 294 272 252 268 241 250 251 263 244 259 222 144 233 156 128 218 140 151 161 139 143 166 146 143 208 146 182 155 122 211 191 187 174 182 169 110 98 93 178 116 92 169 192 167
552 604 451 217 239 273 273 253 258 237 238 188 183 204 237 185 139 220 179 186 139 148 142 221 156 186 149 184 202 168 150 149 138 149 197 179 194 147 152 163 150 138 150 103 165 222 96
594 531 313 236 239 258 260 252 254 240 166 254 233 238 176 127 137 194 140 150 144 143 185 131 173 164 145 204 204 154 197 201 147 186 141 187 173 175 146 155 152 169 158 158 146 215 235
635 332 242 277 229 262 261 243 226 255 243 238 190 192 218 226 158 188 209 143 143 175 134 134 143 145 135 144 151 204 198 201 176 172 161 196 174 178 165 182 133 130 161 113 127 152 135
Wind_Speed
87 84 78 96 107 109 111 110 74 86 75 44 94 56 73 65 77 55 47 68 28 38 30 32 28 39 38 25 33 42 43 48 52 52 36 51 59 57 57 65 44 63 51 61 75 71 61
76 66 70 64 80 75 72 69 68 108 94 101 35 60 53 48 51 50 74 62 50 30 31 30 43 45 42 25 27 47 47 44 52 51 58 62 63 58 61 57 57 58 42 47 58 74 63
73 84 69 73 58 70 72 82 70 68 58 85 107 91 60 61 40 49 69 64 53 33 38 32 35 25 40 47 32 44 51 48 47 52 54 44 53 43 11 51 42 53 66 62 70 62 72
68 60 79 71 67 71 70 69 67 62 62 76 63 59 87 52 89 36 43 76 47 30 29 31 32 37 30 38 42 40 39 41 46 52 56 57 41 14 4 31 50 54 72 64 60 57 69
70 80 80 78 77 73 69 69 67 65 55 69 54 63 62 67 45 84 38 44 29 45 29 29 23 33 21 26 42 25 42 44 38 50 52 28 11 22 16 44 55 70 75 68 65 65 67
84 80 85 84 81 71 64 65 59 66 66 62 71 61 78 34 42 73 32 88 40 47 28 26 33 23 36 28 26 40 47 41 45 47 57 18 19 23 21 48 57 82 76 72 71 68 69
83 54 89 85 83 80 71 61 58 58 63 58 58 67 60 70 68 64 28 30 27 29 29 28 27 29 39 19 32 40 47 39 45 6 23 18 33 32 21 49 63 80 78 76 69 75 67
92 94 78 90 84 84 80 85 80 76 56 54 68 57 57 66 34 31 37 31 26 24 28 27 28 23 12 32 47 38 34 39 41 18 31 35 34 38 39 56 65 85 77 72 73 68 82
96 97 97 97 93 93 89 95 76 79 59 51 51 54 49 43 35 53 26 22 25 27 27 22 26 42 23 33 30 36 35 29 23 25 38 34 36 35 41 58 68 80 81 80 76 73 73
92 99 102 98 98 94 98 103 79 61 53 56 46 35 41 36 31 31 57 24 27 28 26 28 10 20 23 33 30 28 38 37 25 28 42 29 27 32 54 54 64 82 80 76 73 73 46
103 104 103 103 103 98 105 67 62 59 55 58 44 45 39 38 33 53 26 25 27 28 28 28 24 19 41 28 15 29 30 33 34 31 30 25 36 64 62 66 75 85 77 74 69 52 64
108 106 107 105 107 112 73 63 61 58 57 62 55 46 37 42 45 43 35 22 30 22 27 15 24 17 28 25 30 19 23 24 22 27 26 39 32 48 51 70 79 62 71 64 59 54 55
108 110 107 106 111 93 73 72 68 63 58 46 59 38 41 40 50 32 32 25 21 25 26 21 28 24 21 23 13 14 28 27 13 25 19 22 36 63 63 63 66 63 63 52 56 52 53
113 109 109 110 120 84 83 69 65 61 57 49 54 51 54 53 47 33 33 32 22 27 19 16 20 18 14 21 5 16 24 29 15 26 30 24 25 48 69 69 70 59 55 53 55 57 54
112 112 112 116 110 84 68 61 58 40 13 14 49 58 57 37 45 31 29 29 27 26 10 26 21 11 19 23 4 8 27 34 5 16 31 26 36 40 56 54 59 55 56 66 64 46 51
115 118 109 103 91 67 59 49 33 24 21 19 48 48 61 55 38 36 30 22 28 24 27 21 12 16 9 23 9 17 14 29 10 14 11 21 24 33 39 56 57 35 62 45 58 59 58
119 116 117 99 70 60 43 32 31 35 33 36 76 65 62 43 29 39 28 28 28 21 19 21 17 8 11 16 16 8 7 24 9 24 25 16 28 32 36 48 56 62 58 67 67 62 67
113 112 110 79 63 47 34 20 41 39 43 40 74 66 57 33 47 40 23 29 19 24 2 9 13 10 15 15 11 15 20 3 25 11 30 15 10 28 41 47 44 57 53 36 62 35 50
117 118 95 71 51 36 11 21 42 43 62 77 66 71 60 32 32 38 29 29 23 21 11 17 12 7 13 7 12 12 11 2 6 13 15 16 14 22 18 42 45 25 58 70 53 53 54
120 95 77 58 33 24 23 26 37 42 81 69 70 37 41 42 46 38 30 19 19 21 13 16 7 12 13 15 7 9 11 6 10 7 27 10 10 10 8 17 20 42 46 49 36 18 45
103 91 69 36 28 17 17 32 31 85 81 51 65 48 46 50 35 30 27 27 23 22 16 11 9 15 12 6 10 17 12 5 12 11 3 11 13 9 14 19 23 29 27 41 30 53 50
92 78 62 36 27 3 44 22 54 77 50 69 39 59 39 49 20 25 31 28 20 18 15 11 8 9 8 10 14 12 13 18 9 11 42 7 5 4 26 8 19 18 29 45 13 48 56
87 65 51 28 34 42 41 80 71 57 41 65 41 44 55 36 26 24 28 24 21 20 17 12 16 7 12 3 5 20 11 14 12 13 11 10 5 11 17 14 17 14 11 14 14 16 29
77 59 17 3 3 49 65 55 79 39 37 59 50 59 39 29 30 26 29 23 21 18 13 14 5 6 18 17 10 15 22 18 13 22 20 16 16 14 33 11 12 33 19 23 12 34 19
69 48 9 9 23 30 53 77 41 34 35 57 28 48 34 29 26 26 28 26 20 17 9 17 12 11 11 11 9 11 1 4 26 31 16 26 33 16 19 17 13 29 22 30 28 45 21
59 33 3 20 38 13 51 25 41 43 64 30 55 41 35 39 30 21 28 20 24 20 15 13 7 13 14 8 13 6 21 8 27 9 6 12 8 9 35 20 12 20 20 9 32 31 29
53 23 7 24 11 43 62 30 52 27 33 37 32 30 42 20 32 32 20 18 21 18 19 15 13 4 17 6 5 12 21 16 21 22 20 8 19 34 33 15 27 21 37 30 31 39 20
45 2 63 13 8 46 37 34 50 34 29 53 44 44 35 14 34 30 27 26 25 24 12 13 15 14 19 1 3 11 6 10 17 15 30 17 16 13 31 29 32 22 27 27 39 51 48
37 57 12 47 5 35 51 35 24 55 46 47 28 20 27 30 34 25 21 25 25 16 19 17 17 20 16 21 23 4 8 10 15 18 21 20 17 19 16 20 31 30 32 29 18 39 51
Wind_Direction
288 291 273 285 280 280 278 277 274 276 274 270 280 260 274 263 277 263 263 272 249 263 264 273 270 285 282 265 284 290 299 298 295 290 264 261 272 275 270 280 193 202 187 185 192 199 205
314 300 302 288 289 304 288 286 291 272 273 274 268 271 263 264 261 269 277 275 270 253 261 266 283 279 283 282 291 295 291 290 292 267 266 269 269 282 266 270 270 189 235 208 232 197 227
312 291 313 308 278 297 296 280 285 280 281 267 268 267 254 258 264 264 276 266 265 263 274 270 278 254 286 286 270 298 302 289 262 266 301 279 298 285 294 275 186 266 165 179 174 187 201
284 316 321 285 277 309 292 294 288 314 284 268 271 260 262 264 269 265 268 277 264 252 257 270 277 280 275 287 300 304 303 266 269 274 277 282 287 229 140 195 271 173 173 175 160 175 191
311 294 307 314 316 313 304 285 279 292 287 265 271 259 262 262 265 267 267 267 241 271 260 269 262 281 276 288 298 285 309 285 292 303 289 293 248 185 232 276 172 164 167 157 168 178 182
327 327 323 320 315 297 306 298 308 299 283 274 267 259 260 253 258 264 262 270 268 268 260 266 275 270 284 303 300 306 300 285 282 289 307 140 146 151 154 167 167 160 167 175 178 177 197
333 298 322 316 318 315 311 302 302 290 291 275 272 265 272 265 264 259 254 260 275 249 259 265 276 282 290 296 311 302 317 282 290 182 141 160 127 163 160 170 162 167 174 181 190 194 187
325 324 313 317 319 315 312 316 312 309 294 280 263 264 256 263 244 245 255 256 242 246 257 265 275 286 275 306 310 317 290 305 323 165 144 148 161 164 169 168 162 164 176 186 183 181 170
325 326 322 322 320 316 314 317 304 305 285 277 263 262 254 252 238 252 235 233 236 248 256 260 274 300 298 311 314 312 305 309 300 159 148 160 166 168 171 160 163 169 174 182 188 195 190
322 326 324 321 318 315 316 314 304 280 278 272 262 228 242 233 218 217 249 226 239 248 258 266 268 285 306 307 327 295 317 305 114 113 145 158 161 163 149 160 164 171 180 187 195 196 189
324 326 325 316 315 317 318 290 285 273 270 261 243 248 226 213 215 238 216 226 235 253 255 269 277 262 322 315 275 318 334 345 85 101 115 138 142 152 155 154 163 176 184 188 196 196 205
328 322 322 318 325 321 306 293 289 272 261 256 246 242 230 197 227 225 228 220 237 244 270 224 282 299 311 318 323 325 353 4 102 122 135 149 147 169 171 162 170 179 183 189 195 186 180
326 323 321 321 324 318 307 302 293 277 264 241 242 241 198 180 217 193 228 222 242 242 255 266 277 294 310 320 293 341 357 6 85 120 105 146 145 171 175 178 177 183 184 197 197 202 188
327 329 323 320 323 317 312 300 292 283 272 229 227 231 173 193 198 216 224 225 230 243 247 278 268 304 241 308 265 296 3 10 38 150 155 169 176 174 176 183 183 186 191 196 185 178 187
330 328 325 327 324 319 312 309 303 293 261 248 212 175 186 219 204 205 171 222 226 243 210 263 283 309 307 313 267 308 353 352 63 157 176 170 169 169 186 193 186 189 183 185 190 205 205
329 332 325 328 324 320 318 314 307 127 142 183 197 167 180 199 219 181 164 168 232 232 252 264 276 297 265 306 281 352 25 1 47 64 150 166 181 181 182 189 192 197 183 201 203 206 208
331 332 331 328 326 324 320 315 143 142 181 177 157 173 182 196 200 158 180 224 235 240 255 265 272 306 334 307 307 334 21 20 86 12 33 159 178 178 183 185 192 194 188 189 198 206 203
332 333 332 330 327 323 320 174 151 157 167 193 157 177 186 186 150 149 212 217 201 232 167 263 268 309 301 306 275 359 339 356 19 110 9 157 106 191 184 185 191 190 197 215 207 231 221
334 334 332 330 323 321 210 180 166 163 155 150 174 152 157 211 181 157 218 235 231 225 237 265 280 226 286 286 254 261 1 354 14 53 62 71 162 46 176 201 200 229 200 201 213 218 219
337 333 332 330 323 317 194 187 178 173 150 159 160 185 182 158 147 154 214 185 202 236 249 263 185 296 301 319 276 260 275 288 341 52 354 108 119 91 93 203 207 216 220 213 235 285 239
335 334 333 331 323 311 182 187 181 150 152 168 165 163 151 154 172 206 204 197 219 227 255 72 294 305 295 322 338 229 260 270 350 13 37 85 63 147 1 43 219 30 35 245 10 233 240
336 335 334 330 325 280 177 160 152 149 154 164 160 154 179 157 243 241 144 191 138 235 197 89 279 159 250 289 321 303 333 236 294 294 63 205 270 45 358 167 8 353 18 237 334 261 261
338 334 333 335 143 152 174 140 149 152 145 159 165 155 149 173 234 236 208 210 209 210 227 266 277 123 263 327 325 316 309 308 296 280 283 286 263 298 328 355 327 100 224 347 301 264 263
338 336 330 356 207 156 147 153 150 144 155 159 161 148 167 187 195 229 153 172 222 228 186 116 221 69 276 50 12 36 315 312 297 271 328 284 298 230 343 256 293 350 351 40 28 345 329
340 341 144 74 110 162 145 152 150 154 159 158 161 154 190 180 220 227 164 204 228 236 251 193 256 284 61 306 85 39 286 43 335 323 294 264 29 295 287 15 286 314 344 20 341 339 26
342 343 176 171 166 143 166 140 159 164 157 177 153 164 204 157 202 248 156 232 213 207 255 270 265 279 300 50 320 274 289 286 32 360 356 326 7 333 267 306 299 342 304 304 345 360 323
346 344 122 185 93 159 165 170 171 158 158 174 172 161 156 162 214 166 193 184 238 226 256 157 263 238 280 333 31 304 293 299 320 320 7 294 11 305 305 331 318 326 311 305 331 10 327
349 146 157 114 102 164 184 168 167 176 190 153 160 157 186 233 222 178 230 205 228 242 205 283 223 252 283 269 3 345 353 9 311 341 310 342 311 296 298 289 298 344 320 326 320 359 9
349 165 136 178 190 185 175 174 171 160 165 164 159 158 174 168 204 196 183 223 232 224 268 280 281 274 303 291 284 339 333 346 305 322 305 354 307 327 273 323 288 339 311 270 331 307 326